When you browse on this site, cookies collect data to enhance your experience and personalize the content and advertising you see.
Visit our Privacy Policy to learn more. By continuing to use the site, you agree to this use of cookies and data.
  • In Sweden
  • List of Countries
  • For 7 days
  • Water Temperature
  • Weather Map
  • Weather Widgets
  • user-avatar
    Login

    Hourly Weather Sarzyn

    Today, 22 October, Tuesday

    Time Temperature Precipitation Wind Pressure Humidity
    00:00 +15°C° 0 mm 2 mps 753 mmHg 81%
    01:00 +15°C° 0 mm 2 mps 753 mmHg 82%
    02:00 +14°C° 0 mm 2 mps 754 mmHg 84%
    03:00 +14°C° 0 mm 2 mps 754 mmHg 85%
    04:00 +14°C° 0 mm 2 mps 754 mmHg 87%
    05:00 +14°C° 0 mm 1 mps 754 mmHg 88%
    06:00 +14°C° 0 mm 1 mps 754 mmHg 89%
    07:00 +14°C° 0 mm 1 mps 754 mmHg 90%
    08:00 +15°C° 0 mm 1 mps 754 mmHg 84%
    09:00 +18°C° 0 mm 1 mps 754 mmHg 79%
    10:00 +18°C° 0 mm 2 mps 754 mmHg 73%
    11:00 +19°C° 0 mm 2 mps 754 mmHg 70%
    12:00 +20°C° 0 mm 2 mps 754 mmHg 67%
    13:00 +21°C° 0 mm 2 mps 754 mmHg 64%
    14:00 +20°C° 0 mm 2 mps 754 mmHg 67%
    15:00 +19°C° 0 mm 2 mps 754 mmHg 71%
    16:00 +19°C° 0 mm 2 mps 754 mmHg 75%
    17:00 +19°C° 0 mm 1 mps 754 mmHg 78%
    18:00 +18°C° 0 mm 1 mps 754 mmHg 82%
    19:00 +15°C° 0 mm 0 mps 754 mmHg 85%
    20:00 +16°C° 0 mm 1 mps 754 mmHg 87%
    21:00 +15°C° 0 mm 1 mps 754 mmHg 88%
    22:00 +15°C° 0 mm 2 mps 754 mmHg 89%
    23:00 +14°C° 0 mm 2 mps 754 mmHg 90%

    Tomorrow, 23 October, Wednesday

    Time Temperature Precipitation Wind Pressure Humidity
    00:00 +14°C° 0 mm 2 mps 754 mmHg 91%
    01:00 +14°C° 0 mm 2 mps 754 mmHg 92%
    02:00 +13°C° 0 mm 2 mps 754 mmHg 93%
    03:00 +13°C° 0 mm 2 mps 754 mmHg 94%
    04:00 +13°C° 0 mm 2 mps 754 mmHg 95%
    05:00 +12°C° 0 mm 2 mps 754 mmHg 94%
    06:00 +12°C° 0 mm 1 mps 754 mmHg 94%
    07:00 +12°C° 0 mm 1 mps 754 mmHg 94%
    08:00 +13°C° 0 mm 1 mps 754 mmHg 86%
    09:00 +14°C° 0 mm 1 mps 755 mmHg 79%
    10:00 +16°C° 0 mm 1 mps 755 mmHg 72%
    11:00 +16°C° 0 mm 1 mps 755 mmHg 68%
    12:00 +18°C° 0 mm 1 mps 754 mmHg 63%
    13:00 +19°C° 0 mm 1 mps 754 mmHg 59%
    14:00 +18°C° 0 mm 1 mps 754 mmHg 61%
    15:00 +16°C° 0 mm 1 mps 754 mmHg 64%
    16:00 +16°C° 0 mm 1 mps 753 mmHg 66%
    17:00 +15°C° 0 mm 1 mps 753 mmHg 70%
    18:00 +14°C° 0 mm 2 mps 753 mmHg 73%
    19:00 +13°C° 0 mm 2 mps 753 mmHg 77%
    20:00 +13°C° 0 mm 2 mps 753 mmHg 80%
    21:00 +13°C° 0 mm 2 mps 753 mmHg 84%
    22:00 +12°C° 0 mm 2 mps 753 mmHg 87%
    23:00 +11°C° 0 mm 3 mps 753 mmHg 89%

    Day after tomorrow, 24 October, Thursday

    Time Temperature Precipitation Wind Pressure Humidity
    00:00 +11°C° 0 mm 3 mps 752 mmHg 91%
    01:00 +11°C° 0 mm 3 mps 752 mmHg 93%
    02:00 +11°C° 0 mm 3 mps 752 mmHg 93%
    03:00 +11°C° 0 mm 3 mps 752 mmHg 94%
    04:00 +11°C° 0 mm 3 mps 751 mmHg 94%
    05:00 +11°C° 0 mm 3 mps 751 mmHg 95%
    06:00 +11°C° 0 mm 3 mps 751 mmHg 95%
    07:00 +11°C° 0 mm 4 mps 750 mmHg 95%
    08:00 +13°C° 0 mm 4 mps 750 mmHg 89%
    09:00 +14°C° 0 mm 4 mps 750 mmHg 83%
    10:00 +16°C° 0 mm 5 mps 750 mmHg 78%
    11:00 +17°C° 0 mm 5 mps 749 mmHg 73%
    12:00 +19°C° 0 mm 5 mps 749 mmHg 68%
    13:00 +20°C° 0 mm 5 mps 749 mmHg 63%
    14:00 +19°C° 0 mm 5 mps 748 mmHg 66%
    15:00 +19°C° 0 mm 4 mps 748 mmHg 68%
    16:00 +18°C° 0 mm 4 mps 747 mmHg 71%
    17:00 +17°C° 0 mm 4 mps 747 mmHg 74%
    18:00 +15°C° 0 mm 4 mps 747 mmHg 76%
    19:00 +14°C° 0 mm 3 mps 747 mmHg 79%
    20:00 +14°C° 0 mm 3 mps 747 mmHg 79%
    21:00 +14°C° 0 mm 3 mps 747 mmHg 80%
    22:00 +13°C° 0 mm 3 mps 747 mmHg 80%
    23:00 +13°C° 0 mm 3 mps 747 mmHg 78%

    25 October, Friday

    Time Temperature Precipitation Wind Pressure Humidity
    00:00 +13°C° 0 mm 3 mps 747 mmHg 76%
    01:00 +13°C° 0 mm 3 mps 747 mmHg 75%
    02:00 +13°C° 0 mm 3 mps 747 mmHg 74%
    03:00 +12°C° 0 mm 3 mps 747 mmHg 74%
    04:00 +12°C° 0 mm 3 mps 747 mmHg 74%
    05:00 +12°C° 0 mm 3 mps 748 mmHg 78%
    06:00 +11°C° 0 mm 3 mps 748 mmHg 83%
    07:00 +11°C° 0 mm 3 mps 749 mmHg 87%
    08:00 +12°C° 0 mm 4 mps 749 mmHg 84%
    09:00 +14°C° 0 mm 4 mps 750 mmHg 82%
    10:00 +15°C° 0 mm 4 mps 750 mmHg 79%
    11:00 +17°C° 0 mm 4 mps 751 mmHg 73%
    12:00 +17°C° 0 mm 5 mps 751 mmHg 67%
    13:00 +19°C° 0 mm 5 mps 751 mmHg 61%
    14:00 +18°C° 0 mm 4 mps 751 mmHg 63%
    15:00 +17°C° 0 mm 4 mps 751 mmHg 65%
    16:00 +17°C° 0 mm 3 mps 752 mmHg 67%
    17:00 +16°C° 0 mm 3 mps 752 mmHg 71%
    18:00 +14°C° 0 mm 3 mps 752 mmHg 75%
    19:00 +13°C° 0 mm 3 mps 752 mmHg 79%
    20:00 +12°C° 0 mm 3 mps 752 mmHg 80%
    21:00 +13°C° 0 mm 2 mps 752 mmHg 82%
    22:00 +12°C° 0 mm 2 mps 752 mmHg 84%
    23:00 +12°C° 0 mm 2 mps 752 mmHg 84%

    26 October, Saturday

    Time Temperature Precipitation Wind Pressure Humidity
    00:00 +11°C° 0 mm 3 mps 752 mmHg 84%
    01:00 +11°C° 0 mm 3 mps 752 mmHg 84%
    02:00 +11°C° 0 mm 3 mps 751 mmHg 84%
    03:00 +10°C° 0 mm 3 mps 751 mmHg 85%
    04:00 +10°C° 0 mm 3 mps 750 mmHg 86%
    05:00 +11°C° 0 mm 4 mps 750 mmHg 85%
    06:00 +11°C° 0 mm 4 mps 749 mmHg 84%
    07:00 +10°C° 0 mm 5 mps 749 mmHg 83%
    08:00 +13°C° 0 mm 6 mps 749 mmHg 76%
    09:00 +15°C° 0 mm 6 mps 749 mmHg 69%
    10:00 +16°C° 0 mm 7 mps 749 mmHg 61%
    11:00 +17°C° 0 mm 7 mps 748 mmHg 59%
    12:00 +17°C° 0 mm 7 mps 748 mmHg 56%
    13:00 +18°C° 0 mm 7 mps 748 mmHg 54%
    14:00 +17°C° 0 mm 6 mps 748 mmHg 57%
    15:00 +16°C° 0 mm 5 mps 748 mmHg 61%
    16:00 +15°C° 0 mm 4 mps 748 mmHg 64%
    17:00 +15°C° 0 mm 5 mps 748 mmHg 69%
    18:00 +14°C° 0 mm 5 mps 748 mmHg 73%
    19:00 +14°C° 0 mm 5 mps 748 mmHg 78%
    20:00 +13°C° 0 mm 5 mps 748 mmHg 77%
    21:00 +13°C° 0 mm 5 mps 749 mmHg 75%
    22:00 +13°C° 0 mm 5 mps 749 mmHg 74%
    23:00 +12°C° 0 mm 5 mps 749 mmHg 73%

    27 October, Sunday

    Time Temperature Precipitation Wind Pressure Humidity
    00:00 +10°C° 0 mm 5 mps 749 mmHg 72%
    01:00 +9°C° 0 mm 6 mps 749 mmHg 71%
    02:00 +9°C° 0.1 mm 6 mps 749 mmHg 70%
    03:00 +8°C° 0.1 mm 5 mps 749 mmHg 70%
    04:00 +7°C° 0.1 mm 5 mps 749 mmHg 70%
    05:00 +7°C° 0.1 mm 5 mps 750 mmHg 69%
    06:00 +7°C° 0.1 mm 5 mps 750 mmHg 68%
    07:00 +7°C° 0.1 mm 5 mps 750 mmHg 67%
    08:00 +7°C° 0 mm 5 mps 750 mmHg 65%
    09:00 +7°C° 0 mm 6 mps 750 mmHg 64%
    10:00 +7°C° 0 mm 6 mps 750 mmHg 62%
    11:00 +8°C° 0 mm 6 mps 750 mmHg 59%
    12:00 +8°C° 0 mm 7 mps 750 mmHg 56%
    13:00 +8°C° 0 mm 7 mps 750 mmHg 53%
    14:00 +8°C° 0 mm 6 mps 750 mmHg 53%
    15:00 +8°C° 0 mm 5 mps 750 mmHg 53%
    16:00 +7°C° 0 mm 5 mps 750 mmHg 53%
    17:00 +7°C° 0 mm 5 mps 751 mmHg 56%
    18:00 +6°C° 0 mm 5 mps 751 mmHg 58%
    19:00 +5°C° 0 mm 4 mps 751 mmHg 60%
    20:00 +5°C° 0 mm 5 mps 751 mmHg 61%
    21:00 +5°C° 0 mm 5 mps 751 mmHg 62%
    22:00 +5°C° 0 mm 5 mps 751 mmHg 64%
    23:00 +3°C° 0 mm 5 mps 751 mmHg 66%

    28 October, Monday

    Time Temperature Precipitation Wind Pressure Humidity
    00:00 +3°C° 0 mm 5 mps 751 mmHg 68%
    01:00 +3°C° 0 mm 5 mps 751 mmHg 70%
    02:00 +3°C° 0 mm 5 mps 751 mmHg 73%
    03:00 +2°C° 0 mm 5 mps 751 mmHg 75%
    04:00 +2°C° 0 mm 5 mps 751 mmHg 78%
    05:00 +2°C° 0 mm 5 mps 751 mmHg 80%
    06:00 +2°C° 0 mm 5 mps 751 mmHg 82%
    07:00 +1°C° 0 mm 5 mps 751 mmHg 84%
    08:00 +3°C° 0 mm 5 mps 751 mmHg 78%
    09:00 +5°C° 0 mm 5 mps 751 mmHg 72%
    10:00 +5°C° 0 mm 6 mps 751 mmHg 66%
    11:00 +5°C° 0 mm 6 mps 751 mmHg 62%
    12:00 +7°C° 0 mm 6 mps 751 mmHg 58%
    13:00 +7°C° 0 mm 6 mps 750 mmHg 54%
    14:00 +7°C° 0 mm 6 mps 750 mmHg 54%
    15:00 +7°C° 0 mm 5 mps 750 mmHg 54%
    16:00 +6°C° 0 mm 5 mps 750 mmHg 55%
    17:00 +6°C° 0 mm 5 mps 750 mmHg 55%
    18:00 +6°C° 0 mm 4 mps 750 mmHg 56%
    19:00 +5°C° 0 mm 4 mps 750 mmHg 56%
    20:00 +5°C° 0 mm 4 mps 750 mmHg 61%
    21:00 +3°C° 0 mm 5 mps 750 mmHg 67%
    22:00 +2°C° 0 mm 5 mps 750 mmHg 72%
    23:00 +2°C° 0 mm 5 mps 750 mmHg 74%
    Show more